This is the latest recevied weather packets stored in our database for station/object DB0FN-10. If no packets are shown the sender has not sent any weather packets the latest 10 day(s).
| Time | Temp. | Humidity | Pressure | Rain* | Wind** | Luminosity | Snow |
|---|---|---|---|---|---|---|---|
| 1777047308 | 21.11° C | 25% | 1022.2 hPa | - | - | - | - |
| 1777046408 | 21.67° C | 25% | 1022.2 hPa | - | - | - | - |
| 1777045508 | 21.67° C | 26% | 1022.2 hPa | - | - | - | - |
| 1777044608 | 22.22° C | 23% | 1022.3 hPa | - | - | - | - |
| 1777043708 | 22.78° C | 26% | 1022.3 hPa | - | - | - | - |
| 1777042808 | 22.78° C | 25% | 1022.5 hPa | - | - | - | - |
| 1777041908 | 22.78° C | 28% | 1022.4 hPa | - | - | - | - |
| 1777041008 | 22.78° C | 27% | 1022.6 hPa | - | - | - | - |
| 1777040108 | 22.22° C | 26% | 1022.7 hPa | - | - | - | - |
| 1777039207 | 21.11° C | 22% | 1022.7 hPa | - | - | - | - |
| 1777038307 | 22.22° C | 20% | 1022.9 hPa | - | - | - | - |
| 1777037407 | 22.22° C | 25% | 1023 hPa | - | - | - | - |
| 1777036507 | 22.78° C | 28% | 1023 hPa | - | - | - | - |
| 1777035607 | 22.78° C | 32% | 1023 hPa | - | - | - | - |
| 1777034707 | 22.78° C | 28% | 1023.2 hPa | - | - | - | - |
| 1777033807 | 22.78° C | 27% | 1023.3 hPa | - | - | - | - |
| 1777032907 | 22.78° C | 29% | 1023.4 hPa | - | - | - | - |
| 1777032007 | 21.11° C | 32% | 1023.5 hPa | - | - | - | - |
| 1777031107 | 22.22° C | 29% | 1023.4 hPa | - | - | - | - |
| 1777030207 | 21.67° C | 29% | 1023.6 hPa | - | - | - | - |
| 1777029307 | 21.67° C | 30% | 1023.7 hPa | - | - | - | - |
| 1777028407 | 20.56° C | 21% | 1023.8 hPa | - | - | - | - |
| 1777027507 | 21.11° C | 21% | 1023.8 hPa | - | - | - | - |
| 1777026607 | 21.11° C | 24% | 1024 hPa | - | - | - | - |
| 1777025707 | 20° C | 23% | 1024.1 hPa | - | - | - | - |
* Rain since midnight (hover to see other rain measurements)
** Current wind speed in m/s (hover to see current wind gust speed)